sat.trackr.live / text

‹ back to catalog

ONEWEB-0218

NORAD 48214 · 2021-031E

PAYLOAD ACTIVE UNKNOWN

§ Identity

Operator
Country
UK
Launch date
2021-04-25
Launch site
VOSTO
Launch vehicle
Mass (kg)
RCS (m²)

Purposes: comms

External: N2YO · Heavens-Above · Gunter

§ Orbital elements

Epoch: 2026-05-25T02:43:43.669632Z

Period
109.55 min
Inclination
87.8946°
Eccentricity
0.0000943
Mean motion
13.14501273 rev/d
Perigee alt
1,205.1 km
Apogee alt
1,206.5 km
Semi-major
7,583.9 km
B*
9.5656e-5
RAAN
294.2955°
Arg perigee
103.8792°
Mean anomaly
256.2443°
Rev number
24,534

§ Raw data

ONEWEB-02181 48214U 21031E   26145.11369988  .00000048  00000+0  95656-4 0  99952 48214  87.8946 294.2955 0000943 103.8792 256.2443 13.14501273245346

JSON: /api/v1/satellites/48214 · /tle

For live sub-satellite position, see the globe view (requires WebGL).

§ Visibility from observer

Set your observer location to see the next 7 days of passes ≥ 10°. The values pass through the URL so the page stays shareable.

No JS? Fill the form by hand. The geolocation button needs JavaScript.